Hauptseite
METAR-TAF:

METAR-TAF

Flughäfen :

Hohenfels, Deutschland

Breite: 49-13N, Länge: 011-50E, Höhe: 442 m

Beobachtung

Neuester Wetterbericht von vor 4 Stunden und 4 Minuten, um 19:56 UTC
Wind 4 kt aus Südost
Temperatur -4°C
Luftfeuchtigkeit 93%
Luftdruck 1004 hPa
Sichtweite 10 km oder mehr
Geschlossene Wolkendecke in der Höhe von 700 ft

METAR: ETIH 221956Z AUTO 14004KT 9999 OVC007 M04/M05 A2966 RMK AO2 SLP079 T10451046 $

Zeit: 01:00 (00:00 UTC)


TAF: fehlend

Wetterbeobachtungen und Prognosen von mehr als 4000 Flughäfen (METAR und TAF Bericht).

Die verfügbaren Stationen werden durch gelbe und rote Markierungen auf der Karte dargestellt.

Führen Sie die Maus auf sie, um den Namen der Station zu sehen.

Darauf klicken, um die Beobachtung von Wetterbeobachtungen und Prognosen zu sehen.

Um die Karte zu ändern : klicken Sie auf den grünen Tasten mit einem schwarzen Kreuz Zum Vergrößern, auf den grünen Button mit einem Gedankenstrich zu verkleinern, oder auf die grünen Pfeile für benachbarte Karten.


METAR-TAF: